Nakhon Si Thammarat Airport
VTSF : now visible

Airfield :











YOU CAN JOIN US ON...

 
LOGIN :

Register | Disclaimer

   EN    FR    IT 

 









Legend :    VFR   Marginal VFR   IFR   Intensive IFR   Very Intensive IFR
Visi :
Ceiling :
>= 8 km
>= 3000ft
5 to 8 km
1000 to 3000 ft
1500m to 5 km
500 to 1000 ft
800 to 1500m
200 to 500 ft
< 800m
< 200 ft
Symbols :   Thunderstorms  Fog  Heavy snow  Heavy precipitations  Wind > 20 kt






- Airport Elevation : 13 ft
- IATA code : NST


VTSF - Nakhon Si Thammarat

CURRENT METAR :
  • 250200Z VRB02KT 9999 FEW018 30/24 Q1010 NOSIG

EXPIRED METARs :
  • 250100Z VRB02KT 9999 FEW018 27/24 Q1009 NOSIG
  • 250000Z VRB02KT 9999 FEW018 24/24 Q1009 NOSIG

TAF TAF VTSF
Valid from the 25 at 00:00 until the 26 at 00:00 UTC


242300Z 2500/2524 10005KT 9999 FEW020
TEMPO 2507/2513 27010G20KT 4000 TSRA FEW016CB SCT018 BKN100
VTBB FIR / Asia



MET'MAP, your aeronautical weather chart ! - Copyright ORBIFLY December 2007 - Disclaimer

ORBIFLY MET'MAP TEAM :

Programming & Development : Alexandra Zaïnal
Concept & original design : Baudouin d'Aumeries
Assistance for programming : Marc-Olivier Méhu
Technical & hardware support : Manuel Goepfert

Contact : metmap@orbifly.com




SOURCES & CREDITS :

   NOAA       Earth
Advisory